TimeMST,TemperatureF,Dew PointF,Humidity,Sea Level PressureIn,VisibilityMPH,Wind Direction,Wind SpeedMPH,Gust SpeedMPH,PrecipitationIn,Events,Conditions,WindDirDegrees,DateUTC
12:53 AM,42.8,24.8,49,30.08,10.0,South,8.1,-,N/A,,Clear,180,2012-11-04 06:53:00
1:53 AM,46.0,24.1,42,30.02,10.0,SSW,8.1,-,N/A,,Clear,200,2012-11-04 07:53:00
1:53 AM,46.9,23.0,39,30.03,10.0,Calm,Calm,-,N/A,,Scattered Clouds,0,2012-11-04 08:53:00
2:53 AM,46.9,24.1,41,30.02,10.0,Calm,Calm,-,N/A,,Overcast,0,2012-11-04 09:53:00
3:53 AM,46.0,23.0,40,30.02,10.0,West,3.5,-,N/A,,Mostly Cloudy,260,2012-11-04 10:53:00
4:53 AM,44.1,23.0,43,30.08,10.0,West,8.1,-,N/A,,Clear,260,2012-11-04 11:53:00
5:53 AM,46.0,23.0,40,30.10,10.0,West,9.2,-,N/A,,Overcast,270,2012-11-04 12:53:00
6:53 AM,46.9,23.0,39,30.11,10.0,West,10.4,-,N/A,,Overcast,270,2012-11-04 13:53:00
7:53 AM,50.0,25.0,38,30.14,10.0,WNW,15.0,-,N/A,,Overcast,290,2012-11-04 14:53:00
8:53 AM,48.9,30.9,50,30.15,10.0,NW,13.8,-,N/A,,Overcast,320,2012-11-04 15:53:00
9:53 AM,51.1,33.1,50,30.17,10.0,NW,16.1,-,N/A,,Overcast,320,2012-11-04 16:53:00
10:53 AM,51.1,33.1,50,30.18,10.0,NNW,15.0,23.0,N/A,,Overcast,330,2012-11-04 17:53:00
11:53 AM,51.1,34.0,52,30.17,10.0,NW,16.1,-,N/A,,Overcast,310,2012-11-04 18:53:00
12:53 PM,51.1,36.0,56,30.16,10.0,NNW,25.3,32.2,N/A,,Overcast,330,2012-11-04 19:53:00
1:53 PM,50.0,37.9,63,30.17,10.0,WNW,21.9,27.6,0.00,,Mostly Cloudy,300,2012-11-04 20:53:00
2:53 PM,52.0,35.1,53,30.16,10.0,NW,23.0,29.9,N/A,,Scattered Clouds,310,2012-11-04 21:53:00
3:53 PM,50.0,35.1,57,30.20,10.0,NW,15.0,-,N/A,,Mostly Cloudy,320,2012-11-04 22:53:00
4:53 PM,48.0,35.1,61,30.22,10.0,NW,8.1,-,N/A,,Overcast,310,2012-11-04 23:53:00
5:53 PM,46.9,36.0,66,30.24,10.0,WNW,9.2,-,N/A,,Overcast,290,2012-11-05 00:53:00
6:53 PM,44.1,35.1,71,30.26,10.0,West,10.4,-,N/A,,Overcast,280,2012-11-05 01:53:00
7:53 PM,44.1,35.1,71,30.26,10.0,West,11.5,-,N/A,,Overcast,280,2012-11-05 02:53:00
8:53 PM,44.1,36.0,73,30.26,10.0,West,9.2,-,N/A,,Overcast,280,2012-11-05 03:53:00
9:53 PM,44.1,35.1,71,30.25,10.0,WNW,8.1,-,N/A,,Overcast,300,2012-11-05 04:53:00
10:53 PM,39.9,34.0,79,30.26,10.0,West,5.8,-,N/A,,Mostly Cloudy,270,2012-11-05 05:53:00